OneWeb SL0210

operational
NORAD ID: 48787 Int'l Des: 2021-045 Owner: ONEWEBN Country: UK Constellation: oneweb
LEOCIRCULARPOLARONEWEB_TYPE

About OneWeb SL0210

Description loading...

Live Position

Loading 3D Globe...

Upcoming Passes

Altitude History

Altitude vs Time

uPlot chart will show altitude changes over time

Two-Line Element Set

1 48787U 21045W 25258.58511392 -.00000032 00000-0 -11874-3 0 9993
2 48787 87.9035 313.9655 0001351 80.6399 279.4884 13.15548884208217
Epoch: Sep 15, 2025 • Age: 12 hours

Current Status

Altitude 1210.4 km
Velocity 7.25 km/s
Sub-Earth Point -21.36°S, 109.19°E
Launch Date May 28, 2021
Age 4.3 years
Type internet

Technical Details

Classification Payload
Mass 148.00 kg
Dry Mass 140.00 kg
Total Mass 148.00 kg
Length 1.30 m
Diameter 1.00 m
Span 5.00 m
Shape Trapezoid+2 pan
Manufacturer ONEWUS
Bus Type ARROW
Phase Status In Orbit
Owner/State ONEWEBN/UK

Large Constellations

Loading constellations...